Radiation Dose at Monitoring Post of Fukushima Daini Nuclear Power Station
Date,Time,MP-1(microSv/h),MP-2(microSv/h),MP-3(microSv/h),MP-4(microSv/h),MP-5(microSv/h),MP-6(microSv/h),MP-7(microSv/h),Wind Direction,Wind Velocity(m/s),Rain
2016/03/14,00:00,0.464,0.265,0.478,0.425,0.399,0.218,0.191,south,3.1,Yes
2016/03/14,00:10,0.462,0.266,0.477,0.424,0.398,0.217,0.190,south,3.4,Yes
2016/03/14,00:20,0.463,0.265,0.473,0.424,0.395,0.216,0.190,south-southwest,2.0,Yes
2016/03/14,00:30,0.463,0.264,0.474,0.424,0.396,0.217,0.190,south,1.6,Yes
2016/03/14,00:40,0.461,0.265,0.475,0.424,0.395,0.215,0.188,south-southwest,1.1,Yes
2016/03/14,00:50,0.461,0.264,0.473,0.421,0.394,0.217,0.189,-,CALM,Yes
2016/03/14,01:00,0.463,0.264,0.475,0.423,0.393,0.216,0.189,-,CALM,No
2016/03/14,01:10,0.461,0.264,0.475,0.424,0.394,0.215,0.188,-,CALM,Yes
2016/03/14,01:20,0.459,0.265,0.474,0.422,0.394,0.215,0.189,-,CALM,No
2016/03/14,01:30,0.462,0.263,0.473,0.422,0.394,0.215,0.189,-,CALM,No
2016/03/14,01:40,0.460,0.265,0.474,0.422,0.395,0.215,0.188,-,CALM,No
2016/03/14,01:50,0.460,0.263,0.475,0.424,0.394,0.215,0.189,south,0.8,Yes
2016/03/14,02:00,0.462,0.264,0.474,0.422,0.392,0.215,0.187,-,CALM,No
2016/03/14,02:10,0.461,0.264,0.475,0.424,0.393,0.216,0.188,southeast,0.9,Yes
2016/03/14,02:20,0.460,0.263,0.475,0.424,0.394,0.215,0.188,south-southeast,1.4,Yes
2016/03/14,02:30,0.462,0.263,0.472,0.422,0.394,0.215,0.187,southeast,2.0,Yes
2016/03/14,02:40,0.462,0.264,0.474,0.422,0.392,0.216,0.188,southeast,2.0,Yes
2016/03/14,02:50,0.460,0.263,0.476,0.423,0.397,0.216,0.187,south-southeast,1.8,Yes
2016/03/14,03:00,0.460,0.263,0.473,0.422,0.395,0.215,0.187,south-southeast,1.7,Yes
2016/03/14,03:10,0.461,0.264,0.476,0.422,0.393,0.216,0.188,south-southeast,1.1,Yes
2016/03/14,03:20,0.460,0.264,0.476,0.424,0.393,0.215,0.189,-,CALM,Yes
2016/03/14,03:30,0.461,0.263,0.475,0.421,0.395,0.215,0.188,-,CALM,Yes
2016/03/14,03:40,0.461,0.264,0.474,0.421,0.393,0.214,0.188,north-northeast,0.6,Yes
2016/03/14,03:50,0.459,0.264,0.476,0.422,0.395,0.215,0.189,-,CALM,Yes
2016/03/14,04:00,0.461,0.264,0.473,0.422,0.396,0.215,0.187,north,1.4,Yes
2016/03/14,04:10,0.462,0.263,0.474,0.422,0.393,0.215,0.188,north,1.9,Yes
2016/03/14,04:20,0.459,0.265,0.475,0.424,0.395,0.215,0.188,north,1.9,Yes
2016/03/14,04:30,0.462,0.264,0.474,0.423,0.395,0.215,0.187,north-northwest,1.6,No
2016/03/14,04:40,0.461,0.264,0.473,0.422,0.394,0.214,0.188,north-northwest,1.7,Yes
2016/03/14,04:50,0.460,0.264,0.474,0.423,0.393,0.215,0.188,north,1.9,Yes
2016/03/14,05:00,0.460,0.264,0.476,0.424,0.394,0.215,0.187,north,2.2,Yes
2016/03/14,05:10,0.461,0.265,0.475,0.423,0.396,0.217,0.188,north-northwest,3.5,Yes
2016/03/14,05:20,0.462,0.265,0.474,0.423,0.394,0.215,0.188,north-northwest,3.3,Yes
2016/03/14,05:30,0.461,0.264,0.477,0.424,0.395,0.216,0.189,north-northwest,3.4,Yes
2016/03/14,05:40,0.462,0.265,0.474,0.423,0.394,0.216,0.189,north,5.9,Yes
2016/03/14,05:50,0.463,0.266,0.474,0.423,0.395,0.218,0.190,northwest,4.2,Yes
2016/03/14,06:00,0.460,0.265,0.476,0.426,0.395,0.217,0.189,north-northwest,5.4,Yes
2016/03/14,06:10,0.463,0.267,0.474,0.424,0.393,0.217,0.189,north-northwest,5.6,Yes
2016/03/14,06:20,0.465,0.267,0.475,0.422,0.395,0.217,0.189,north-northwest,6.1,Yes
2016/03/14,06:30,0.462,0.266,0.476,0.423,0.395,0.218,0.190,north-northwest,6.1,Yes
2016/03/14,06:40,0.464,0.266,0.475,0.423,0.395,0.217,0.189,north-northwest,5.8,Yes
2016/03/14,06:50,0.462,0.265,0.474,0.424,0.395,0.217,0.190,north-northwest,5.2,Yes
2016/03/14,07:00,0.461,0.265,0.473,0.422,0.395,0.217,0.190,north-northwest,4.6,Yes
2016/03/14,07:10,0.463,0.266,0.475,0.422,0.397,0.217,0.190,north-northwest,4.8,Yes
2016/03/14,07:20,0.461,0.266,0.474,0.424,0.394,0.217,0.191,north-northwest,6.1,Yes
2016/03/14,07:30,0.462,0.266,0.474,0.423,0.395,0.217,0.189,north-northwest,5.8,Yes
2016/03/14,07:40,0.460,0.268,0.475,0.423,0.396,0.217,0.190,north-northwest,6.6,Yes
2016/03/14,07:50,0.461,0.266,0.475,0.423,0.395,0.217,0.189,north,6.7,Yes
2016/03/14,08:00,0.462,0.266,0.473,0.420,0.393,0.216,0.189,north,7.7,Yes
2016/03/14,08:10,0.462,0.265,0.472,0.421,0.395,0.216,0.189,north,8.2,Yes
2016/03/14,08:20,0.459,0.266,0.473,0.422,0.395,0.217,0.189,north,7.8,Yes
2016/03/14,08:30,0.461,0.265,0.474,0.421,0.394,0.217,0.190,north,7.4,Yes
2016/03/14,08:40,0.459,0.265,0.471,0.419,0.393,0.217,0.189,north,6.7,Yes
2016/03/14,08:50,0.459,0.264,0.472,0.421,0.395,0.217,0.190,north,5.8,Yes
2016/03/14,09:00,0.459,0.265,0.472,0.421,0.394,0.217,0.189,north-northwest,5.8,Yes
2016/03/14,09:10,0.462,0.265,0.474,0.418,0.393,0.216,0.188,north-northwest,5.6,Yes
2016/03/14,09:20,0.460,0.264,0.472,0.421,0.393,0.216,0.189,north,5.3,Yes
2016/03/14,09:30,0.461,0.265,0.475,0.420,0.395,0.217,0.188,north,7.3,Yes
2016/03/14,09:40,0.462,0.265,0.472,0.418,0.393,0.216,0.189,north,5.1,Yes
2016/03/14,09:50,0.460,0.265,0.470,0.420,0.392,0.216,0.188,north,6.4,Yes
2016/03/14,10:00,0.459,0.264,0.472,0.421,0.393,0.216,0.189,north,5.1,Yes
2016/03/14,10:10,0.461,0.265,0.473,0.417,0.393,0.216,0.188,north,5.3,Yes
2016/03/14,10:20,0.459,0.264,0.471,0.420,0.392,0.217,0.188,north,4.7,Yes
2016/03/14,10:30,0.458,0.265,0.471,0.420,0.392,0.216,0.189,north,7.2,Yes
2016/03/14,10:40,0.462,0.264,0.474,0.417,0.394,0.217,0.188,north,6.9,Yes
2016/03/14,10:50,0.459,0.265,0.470,0.418,0.394,0.217,0.188,north,5.2,Yes
2016/03/14,11:00,0.459,0.265,0.471,0.420,0.393,0.216,0.187,north,5.0,Yes
2016/03/14,11:10,0.458,0.265,0.472,0.417,0.392,0.216,0.188,north,5.1,Yes
2016/03/14,11:20,0.460,0.265,0.470,0.418,0.392,0.217,0.188,north,5.1,Yes
2016/03/14,11:30,0.457,0.264,0.469,0.419,0.394,0.216,0.187,north,6.3,Yes
2016/03/14,11:40,0.458,0.265,0.472,0.417,0.391,0.217,0.188,north,5.3,Yes
2016/03/14,11:50,0.462,0.265,0.469,0.417,0.393,0.216,0.188,north,6.4,Yes
2016/03/14,12:00,0.458,0.265,0.469,0.419,0.391,0.217,0.188,north,5.6,Yes
2016/03/14,12:10,0.458,0.265,0.471,0.417,0.394,0.216,0.187,north,5.0,Yes
2016/03/14,12:20,0.461,0.265,0.471,0.417,0.395,0.215,0.188,north,5.4,Yes
2016/03/14,12:30,0.458,0.266,0.469,0.418,0.393,0.216,0.188,north,5.3,Yes
2016/03/14,12:40,0.460,0.265,0.472,0.418,0.392,0.216,0.189,north,4.8,Yes
2016/03/14,12:50,0.461,0.265,0.471,0.417,0.393,0.216,0.188,north,5.3,Yes
2016/03/14,13:00,0.458,0.266,0.469,0.418,0.392,0.217,0.190,north,5.9,Yes
2016/03/14,13:10,0.458,0.264,0.471,0.417,0.393,0.217,0.188,north,4.1,Yes
2016/03/14,13:20,0.459,0.265,0.470,0.416,0.393,0.217,0.189,north,4.3,Yes
2016/03/14,13:30,0.461,0.265,0.469,0.418,0.393,0.216,0.188,north,3.2,Yes
2016/03/14,13:40,0.458,0.266,0.468,0.416,0.393,0.216,0.188,north,5.3,Yes
2016/03/14,13:50,0.457,0.265,0.469,0.417,0.391,0.217,0.188,north,5.4,Yes
2016/03/14,14:00,0.459,0.265,0.469,0.416,0.392,0.217,0.188,north,5.6,Yes
2016/03/14,14:10,0.457,0.264,0.466,0.415,0.391,0.216,0.187,north,6.5,Yes
2016/03/14,14:20,0.455,0.264,0.470,0.415,0.392,0.215,0.187,north-northeast,7.7,Yes
2016/03/14,14:30,0.457,0.264,0.468,0.417,0.392,0.217,0.188,north,7.8,Yes
2016/03/14,14:40,0.456,0.265,0.466,0.416,0.391,0.215,0.187,north,8.1,Yes
2016/03/14,14:50,0.457,0.264,0.469,0.413,0.391,0.215,0.187,north,5.0,Yes
2016/03/14,15:00,0.458,0.264,0.468,0.414,0.389,0.216,0.185,north,4.4,Yes
2016/03/14,15:10,0.454,0.263,0.467,0.414,0.391,0.216,0.185,north,4.7,Yes
2016/03/14,15:20,0.455,0.262,0.465,0.413,0.392,0.215,0.186,north,5.6,Yes
2016/03/14,15:30,0.455,0.262,0.468,0.414,0.391,0.214,0.185,north,5.6,Yes
2016/03/14,15:40,0.457,0.263,0.466,0.414,0.392,0.214,0.187,north,6.4,Yes
2016/03/14,15:50,0.455,0.263,0.465,0.413,0.390,0.214,0.186,north-northwest,6.5,Yes
2016/03/14,16:00,0.453,0.262,0.464,0.413,0.391,0.214,0.186,north,6.7,Yes
2016/03/14,16:10,0.455,0.263,0.464,0.413,0.390,0.213,0.185,north,7.5,Yes
2016/03/14,16:20,0.454,0.262,0.464,0.414,0.390,0.214,0.184,north,7.0,Yes
2016/03/14,16:30,0.453,0.263,0.463,0.412,0.390,0.215,0.185,north,7.2,Yes
2016/03/14,16:40,0.454,0.262,0.464,0.411,0.391,0.213,0.184,north,7.7,Yes
2016/03/14,16:50,0.453,0.262,0.462,0.413,0.391,0.214,0.184,north,6.9,Yes
2016/03/14,17:00,0.452,0.263,0.462,0.409,0.391,0.212,0.184,north,7.2,Yes
2016/03/14,17:10,0.452,0.262,0.465,0.410,0.389,0.213,0.184,north,7.6,Yes
2016/03/14,17:20,0.452,0.261,0.463,0.410,0.390,0.212,0.184,north,7.8,Yes
2016/03/14,17:30,0.452,0.262,0.460,0.409,0.389,0.213,0.184,north,6.4,Yes
2016/03/14,17:40,0.451,0.262,0.463,0.411,0.390,0.212,0.183,north,7.1,Yes
2016/03/14,17:50,0.452,0.262,0.464,0.410,0.390,0.212,0.183,north,7.5,Yes
2016/03/14,18:00,0.453,0.261,0.462,0.408,0.390,0.213,0.184,north-northwest,7.5,Yes
2016/03/14,18:10,0.451,0.262,0.460,0.409,0.389,0.212,0.183,north-northwest,7.0,Yes
2016/03/14,18:20,0.451,0.261,0.462,0.409,0.389,0.212,0.184,north-northwest,7.5,Yes
2016/03/14,18:30,0.451,0.261,0.463,0.410,0.390,0.213,0.183,north,8.8,Yes
2016/03/14,18:40,0.451,0.262,0.460,0.409,0.390,0.213,0.183,north-northwest,7.8,Yes
2016/03/14,18:50,0.451,0.261,0.462,0.407,0.388,0.212,0.184,north,8.0,Yes
2016/03/14,19:00,0.452,0.261,0.463,0.408,0.388,0.213,0.184,north-northwest,8.7,Yes
2016/03/14,19:10,0.451,0.262,0.462,0.410,0.387,0.214,0.184,north,8.1,Yes
2016/03/14,19:20,0.450,0.261,0.461,0.407,0.390,0.213,0.184,north,9.2,Yes
2016/03/14,19:30,0.450,0.261,0.462,0.408,0.390,0.213,0.185,north,9.0,Yes
2016/03/14,19:40,0.452,0.263,0.462,0.409,0.389,0.213,0.184,north-northwest,9.0,Yes
2016/03/14,19:50,0.451,0.261,0.462,0.409,0.389,0.213,0.185,north-northwest,10.0,Yes
2016/03/14,20:00,0.450,0.261,0.460,0.408,0.390,0.212,0.183,north,9.0,Yes
2016/03/14,20:10,0.449,0.262,0.462,0.409,0.390,0.212,0.184,north,8.6,Yes
2016/03/14,20:20,0.450,0.261,0.463,0.410,0.388,0.213,0.184,north-northwest,8.7,Yes
2016/03/14,20:30,0.451,0.262,0.462,0.409,0.388,0.213,0.184,north,9.0,Yes
2016/03/14,20:40,0.450,0.260,0.460,0.408,0.389,0.213,0.183,north,9.2,Yes
2016/03/14,20:50,0.448,0.259,0.463,0.409,0.390,0.211,0.183,north,9.2,Yes
2016/03/14,21:00,0.453,0.262,0.462,0.409,0.389,0.212,0.183,north-northwest,8.7,Yes
2016/03/14,21:10,0.449,0.260,0.460,0.407,0.389,0.212,0.183,north,9.5,Yes
2016/03/14,21:20,0.450,0.261,0.461,0.408,0.389,0.211,0.183,north,10.4,Yes
2016/03/14,21:30,0.449,0.261,0.462,0.407,0.390,0.213,0.183,north-northwest,9.8,Yes
2016/03/14,21:40,0.451,0.259,0.461,0.409,0.388,0.212,0.182,north,9.8,Yes
2016/03/14,21:50,0.450,0.260,0.459,0.408,0.387,0.212,0.184,north-northwest,10.1,Yes
2016/03/14,22:00,0.449,0.261,0.459,0.407,0.388,0.212,0.182,north-northwest,10.3,Yes
2016/03/14,22:10,0.449,0.260,0.461,0.408,0.389,0.211,0.183,north-northwest,8.7,Yes
2016/03/14,22:20,0.449,0.260,0.459,0.408,0.388,0.211,0.182,north,11.2,Yes
2016/03/14,22:30,0.448,0.260,0.457,0.407,0.388,0.211,0.182,north,8.6,Yes
2016/03/14,22:40,0.447,0.260,0.459,0.403,0.388,0.211,0.182,north-northwest,8.9,Yes
2016/03/14,22:50,0.446,0.259,0.459,0.407,0.388,0.211,0.181,north-northwest,9.3,Yes
2016/03/14,23:00,0.447,0.260,0.458,0.407,0.388,0.211,0.181,north,8.7,Yes
2016/03/14,23:10,0.447,0.260,0.457,0.406,0.386,0.211,0.180,north-northwest,8.7,Yes
2016/03/14,23:20,0.448,0.259,0.460,0.405,0.386,0.209,0.182,north,10.1,Yes
2016/03/14,23:30,0.448,0.259,0.459,0.406,0.388,0.212,0.182,north,8.4,Yes
2016/03/14,23:40,0.448,0.259,0.458,0.406,0.389,0.210,0.182,north-northwest,9.2,Yes
2016/03/14,23:50,0.447,0.259,0.458,0.405,0.386,0.210,0.182,north-northwest,8.9,Yes
